#timestamp,LO_Frequency,Hit,StdDev 
1516669215.5,286046998.6,N
1516669235.3,286046998.6,N
1516669255.2,286047000.0,N
1516669275.0,286047001.4,N
1516669275.9,286047001.4,N
1516669295.8,286047001.6,N
1516669315.6,286047001.6,N
1516669335.4,286047003.5,N
1516669355.3,286047002.6,N
1516669375.1,286047002.0,N
1516669395.8,286047003.7,N
1516669415.7,286047002.8,N
1516669435.5,286046998.2,N
1516669455.4,286047002.6,N
1516669475.2,286046999.7,N
1516669495.0,286047000.1,N
1516669495.9,286047000.1,N
1516669515.8,286047002.0,N
1516669535.6,286046999.9,N
1516669555.6,286046999.9,N
1516669575.4,286047000.4,N
1516669595.3,286047000.3,N
1516669615.1,286046999.9,N
1516669635.9,286047001.1,N
1516669655.7,286047000.4,N
1516669675.5,286046998.5,N
1516669695.4,286046998.7,N
1516669715.2,286046996.5,N
1516669735.1,286046996.6,N
1516669736.0,286046996.6,N
1516669755.8,286046998.9,N
1516669775.6,286046996.9,N
1516669795.5,286046997.0,N
1516669815.3,286046998.7,N
1516669835.1,286046998.6,N
1516669855.9,286047001.2,N
1516669875.7,286046999.0,N
1516669895.6,286046998.6,N
1516669915.4,286046998.4,N
1516669935.2,286046999.2,N
1516669955.1,286047000.8,N
1516669956.0,286047000.8,N
1516669975.8,286046998.6,N
1516669995.7,286046998.3,N
1516670015.5,286046998.9,N
1516670035.3,286046999.3,N
1516670055.2,286046997.6,N
1516670075.0,286046997.3,N
1516670075.9,286046997.3,N
1516670095.7,286046995.0,Y
1516670115.6,286046996.8,P
1516670135.4,286046996.5,P
1516670155.3,286046999.5,N
1516670175.1,286047001.0,N
1516670176.0,286047001.0,N
1516670195.8,286047002.4,N
1516670215.7,286047002.3,N
1516670235.5,286047002.4,N
1516670255.3,286047001.4,N
1516670275.2,286047002.5,N
1516670295.0,286047002.2,N
1516670295.9,286047002.2,N
1516670315.8,286047002.5,N
1516670335.6,286047000.0,N
1516670355.4,286047000.7,N
1516670375.3,286047002.6,N
1516670395.1,286047002.0,N
1516670415.9,286047004.4,N
1516670435.7,286047002.3,N
1516670455.5,286047002.3,N
1516670475.4,286047002.0,N
1516670495.2,286047002.0,N
1516670515.0,286047002.0,N
1516670515.9,286047002.0,N
1516670535.8,286047004.0,N
1516670555.6,286047011.9,Y
1516670575.5,286047002.5,P
1516670595.3,286047002.0,P
1516670615.1,286047001.8,P
1516670635.9,286047001.5,Y
1516670655.7,286046998.2,P
1516670675.5,286046999.9,N
1516670695.4,286047002.7,N
1516670715.2,286046998.6,N
1516670735.1,286046999.6,N
1516670736.0,286046999.6,N
1516670755.8,286047000.7,N
1516670775.6,286046998.3,N
1516670795.5,286046999.0,N
1516670815.3,286047000.9,N
1516670835.1,286047000.8,N
1516670855.9,286046999.2,N
1516670875.7,286046997.1,N
1516670895.6,286046999.6,N
1516670915.4,286046999.0,N
1516670935.2,286046997.2,N
1516670955.1,286046997.7,N
1516670956.0,286046997.7,N
1516670975.8,286046997.0,N
1516670995.7,286046995.3,Y
1516671015.5,286046998.0,P
1516671035.3,286046995.1,P
1516671055.2,286046995.4,N
1516671075.9,286046995.5,N
1516671095.7,286046995.2,N
1516671115.6,286046997.6,N
1516671135.4,286046996.6,N
1516671185.3,286046997.7,E
1516671195.2,286046999.6,N
1516671215.1,286046998.7,P
1516671216.0,286046998.7,N
1516671235.8,286046998.8,N
1516671255.6,286046998.6,Y
1516671275.5,286046999.7,P
1516671295.3,286047001.7,P
1516671315.7,286047002.8,N
1516671335.6,286047003.8,N
1516671355.4,286047003.4,N
1516671375.3,286047003.8,N
1516671395.1,286047001.5,N
1516671415.8,286047004.4,N
1516671435.7,286047003.6,N
1516671455.5,286047003.9,N
1516671475.4,286047001.6,N
1516671495.2,286047002.4,N
1516671515.0,286046999.9,N
1516671515.9,286046999.9,N
1516671535.8,286047002.3,N
1516671555.6,286047001.5,N
1516671575.5,286046999.8,N
1516671595.3,286046999.8,N
1516671615.1,286047002.0,N
1516671635.9,286047002.7,N
1516671655.7,286047003.9,N
1516671675.5,286047004.1,N
1516671695.4,286047002.2,N
1516671715.2,286047000.0,N
1516671735.1,286047000.3,N
1516671736.0,286047000.3,N
1516671755.8,286047000.2,N
1516671775.6,286047001.9,N
1516671795.5,286046999.7,N
1516671815.3,286047004.4,N
1516671835.1,286047003.2,N
1516671855.9,286047004.6,N
1516671875.7,286047004.6,N
1516671895.6,286047005.6,Y
1516671915.4,286047001.3,P
1516671935.2,286047001.4,P
1516671955.1,286046999.9,N
1516671956.0,286046999.9,N
1516671975.8,286046998.6,N
1516671995.7,286046998.1,N
1516672015.5,286046999.6,N
1516672035.3,286046996.5,N
1516672055.2,286046999.4,N
1516672075.0,286047000.9,N
1516672075.9,286047000.9,N
1516672095.7,286046998.6,N
1516672115.6,286047000.4,N
1516672135.4,286047000.0,N
1516672155.3,286047002.7,N
1516672175.1,286047001.8,N
1516672176.0,286047001.8,N
1516672195.8,286047000.3,N
1516672215.7,286047002.3,N
1516672235.5,286047002.3,N
1516672255.3,286047002.7,N
1516672275.2,286047001.4,N
1516672295.0,286047001.9,N
1516672295.9,286047001.9,N
1516672315.8,286047002.6,N
1516672335.6,286047001.6,N
1516672355.4,286046999.9,N
1516672375.3,286047000.4,N
1516672395.1,286046998.1,N
1516672415.9,286047000.8,N
1516672435.7,286047000.8,N
1516672455.5,286047000.4,N
1516672475.4,286047002.1,N
1516672495.2,286046999.9,N
1516672515.0,286047000.2,N
1516672516.0,286047000.2,N
1516672535.8,286047002.7,N
1516672555.6,286047002.6,N
1516672575.5,286047002.1,N
1516672595.3,286047003.0,N
1516672615.1,286047001.6,N
1516672635.9,286047001.8,N
1516672655.7,286047001.3,N
1516672675.6,286047005.8,Y
1516672695.4,286047003.2,P
1516672715.2,286047002.1,N
1516672735.1,286047000.2,N
1516672736.0,286047000.2,N
1516672755.8,286047000.5,N
1516672775.6,286046999.9,N
1516672795.5,286046998.3,N
